Home   Weather   Lancaster   Past weeks

Flag for USA Past Weather in Lancaster, California, USA — Yesterday and Last 2 Weeks

Now
49 °F

Overcast.


Feels Like: 44 °F
Forecast: 44 / 50 °F
Wind: 12 mph from West

Location: Lancaster / Fox Field

Current Time: Jan 21, 2017 at 6:10:00 pm

Latest Report: Jan 21, 2017 at 4:56 pm


Visibility: 10 mi

Pressure: 29.96 "Hg (27.47 "Hg at 718m altitude)

Humidity: 66%

Dew Point: 38 °F

Location of LancasterLocation

Past Weather in Lancaster — Graph

°F

Lancaster Temperature Yesterday

Maximum temperature yesterday: 51 °F (at 1:56 pm)
Minimum temperature yesterday: 41 °F (at 10:56 pm)
Average temperature yesterday: 45 °F

High & Low Weather Summary for the Past Weeks

 TemperatureHumidityPressure
High58 °F (Jan 9, 12:56 pm)100% (Jan 7, 11:56 pm)30.37 "Hg (Jan 7, 11:56 pm)
Low28 °F (Jan 17, 5:56 am)23% (Jan 17, 1:56 pm)29.37 "Hg (Jan 20, 1:56 pm)
Average45 °F78%30.04 "Hg
* Reported Jan 6 4:56 pm — Jan 21 4:56 pm, Lancaster, Weather by CustomWeather, © 2017

Note: Actual official high and low records may vary slightly from our data, if they occured in-between our weather recording intervals... More about our weather records

Advertising

Lancaster Weather History for the Previous 24 Hours

Scroll right to see more
 ConditionsComfort  
Time TempWeatherWind HumidityBarometerVisibility
4:56 pm
Sat, Jan 21
49 °FOvercast.12 mph66%29.96 "Hg10 mi
3:56 pm50 °FSunny.18 mph50%29.94 "Hg10 mi
2:56 pm52 °FSunny.22 mph50%29.92 "Hg10 mi
1:56 pm52 °FSunny.29 mph55%29.90 "Hg10 mi
12:56 pm51 °FSunny.28 mph54%29.90 "Hg10 mi
11:56 am50 °FSunny.30 mph59%29.89 "Hg10 mi
10:56 am48 °FSunny.25 mph61%29.90 "Hg10 mi
9:56 am47 °FSunny.24 mph66%29.88 "Hg10 mi
8:56 am44 °FSunny.26 mph71%29.85 "Hg10 mi
7:56 am40 °FSunny.16 mph80%29.82 "Hg10 mi
6:56 am37 °FClear.15 mph86%29.81 "Hg10 mi
5:56 am38 °FClear.16 mph79%29.76 "Hg10 mi
4:56 am39 °FClear.20 mph76%29.69 "Hg10 mi
3:56 am39 °FClear.24 mph79%29.67 "Hg10 mi
2:56 am39 °FClear.16 mph79%29.64 "Hg10 mi
1:56 am38 °FPassing clouds.16 mph90%29.62 "Hg10 mi
12:56 am40 °FPartly cloudy.12 mph86%29.58 "Hg10 mi
11:56 pm
Fri, Jan 20
41 °FClear.14 mph82%29.55 "Hg10 mi
10:56 pm41 °FPassing clouds.12 mph86%29.54 "Hg10 mi
9:56 pm44 °FPassing clouds.18 mph76%29.53 "Hg10 mi
8:56 pm43 °FPassing clouds.13 mph86%29.51 "Hg10 mi
7:56 pm43 °FPassing clouds.7 mph86%29.48 "Hg10 mi
6:56 pm44 °FPassing clouds.15 mph82%29.46 "Hg10 mi
Weather by CustomWeather, © 2017

See weather overviewHow to use our weather pages